S-NET D (43186 NORAD) Tracking and Keplerian Element Data

This shows tracking and keplerian element data for the satellite.

Feedback or suggestion? Click here.




ElementValue
Catalog43186
NameS-NET D
Epoch Orbit14844
Epoch Day294.79054111
Epoch Year2020
RAAN200.5294
Inclination97.6846
Eccentricity0.0011224
Argument of Perigee158.0046
Mean Anonmoly202.1659
Mean Motion14.9686716
Decay Rate-2.56E-06
L11 43186U 18014G 20294.79054111 -.00000256 00000-0 -17253-4 0 9998
L22 43186 97.6846 200.5294 0011224 158.0046 202.1659 14.96867160148444

Live tracking and technical data element details for S-NET D (NORAD 43186). S-NET D can be tracked NOW for your location showing map with azimuth and elevation plus other details from your city location.

Track the satellite on the map from your city or location and see movement details for azimuth, elevation, latitude, longitude, range, height, and movement on the map or in text.







IsCatalogInMostPopularTable: catalog: 43186, numindb: 475
Update: records affected: 1



GetName: 43186 S-NET D

Hit Count: updated at: Thu, 22 Oct 2020 03:13:49 GMT